Location: Allaines
(49.9632°N, 2.9458°E)
Time: 18:33:02
(UTC+00:00)

Cosmos 2233 Rocket - Pass Details

Date: 09 April 2020
Orbit: 952 x 991 km, 82.9° (Epoch: 24 May)

Event Time Altitude Azimuth Distance (km) Brightness Sun altitude
Rises 23:39:34 0° 352° (N) 3,704 8.2 -32.0°
Reaches altitude 10° 23:42:09 10° 356° (N) 2,746 7.2 -32.0°
Enters shadow 23:47:57 60° 57° (ENE) 1,107 4.3 -32.0°
